Time,TemperatureF,DewpointF,PressureIn,WindDirection,WindDirectionDegrees,WindSpeedMPH,WindSpeedGustMPH,Humidity,HourlyPrecipIn,Conditions,Clouds,dailyrainin,SoftwareType,DateUTC
2013-03-17 00:02:00,57.0,48.0,29.92,SW,229,0.0,0.0,71,0.00,,,0.00,,2013-03-17 05:02:00,
2013-03-17 00:12:00,57.0,48.0,29.92,SW,229,0.0,0.0,71,0.00,,,0.00,,2013-03-17 05:12:00,
2013-03-17 00:22:00,57.0,48.0,29.92,SW,229,0.0,0.0,72,0.00,,,0.00,,2013-03-17 05:22:00,
2013-03-17 00:32:00,57.0,48.0,29.92,SW,229,0.0,0.0,72,0.00,,,0.00,,2013-03-17 05:32:00,
2013-03-17 00:42:00,57.0,48.0,29.92,SW,229,0.0,0.0,72,0.00,,,0.00,,2013-03-17 05:42:00,
2013-03-17 00:52:00,57.0,48.0,29.92,SW,229,0.0,0.0,71,0.00,,,0.00,,2013-03-17 05:52:00,
2013-03-17 01:02:00,58.0,49.0,29.92,SW,229,0.0,0.0,71,0.00,,,0.00,,2013-03-17 06:02:00,
2013-03-17 01:12:00,58.0,49.0,29.92,SW,229,0.0,0.0,71,0.00,,,0.00,,2013-03-17 06:12:00,
2013-03-17 01:22:00,57.0,48.0,29.93,SW,229,0.0,0.0,71,0.00,,,0.00,,2013-03-17 06:22:00,
2013-03-17 01:32:00,57.0,48.0,29.92,SW,229,0.0,0.0,71,0.00,,,0.00,,2013-03-17 06:32:00,
2013-03-17 01:42:00,57.0,48.0,29.92,SW,229,0.0,0.0,71,0.00,,,0.00,,2013-03-17 06:42:00,
2013-03-17 01:52:00,56.0,47.0,29.91,SW,229,0.0,0.0,72,0.00,,,0.00,,2013-03-17 06:52:00,
2013-03-17 02:02:00,56.0,47.0,29.91,SW,229,0.0,0.0,73,0.00,,,0.00,,2013-03-17 07:02:00,
2013-03-17 02:12:00,56.0,47.0,29.91,SW,229,0.0,0.0,73,0.00,,,0.00,,2013-03-17 07:12:00,
2013-03-17 02:22:00,56.0,47.0,29.91,SW,229,0.0,0.0,73,0.00,,,0.00,,2013-03-17 07:22:00,
2013-03-17 02:32:00,55.0,47.0,29.91,SW,229,0.0,0.0,74,0.00,,,0.00,,2013-03-17 07:32:00,
2013-03-17 02:42:00,55.0,47.0,29.91,SW,229,0.0,0.0,74,0.00,,,0.00,,2013-03-17 07:42:00,
2013-03-17 02:52:00,55.0,47.0,29.91,SW,229,0.0,0.0,74,0.00,,,0.00,,2013-03-17 07:52:00,
2013-03-17 03:02:00,55.0,47.0,29.91,SW,229,0.0,0.0,75,0.00,,,0.00,,2013-03-17 08:02:00,
2013-03-17 03:12:00,55.0,47.0,29.91,SSE,167,0.0,0.0,75,0.00,,,0.00,,2013-03-17 08:12:00,
2013-03-17 03:22:00,55.0,47.0,29.91,SSE,167,0.0,0.0,75,0.00,,,0.00,,2013-03-17 08:22:00,
2013-03-17 03:32:00,55.0,48.0,29.91,SSE,156,0.0,0.0,76,0.00,,,0.00,,2013-03-17 08:32:00,
2013-03-17 03:42:00,55.0,48.0,29.91,SSE,156,0.0,0.0,76,0.00,,,0.00,,2013-03-17 08:42:00,
2013-03-17 03:52:00,54.0,47.0,29.91,SSE,156,0.0,0.0,77,0.00,,,0.00,,2013-03-17 08:52:00,
2013-03-17 04:02:00,54.0,48.0,29.91,South,172,0.0,0.0,79,0.00,,,0.00,,2013-03-17 09:02:00,
2013-03-17 04:12:00,54.0,48.0,29.91,South,172,0.0,0.0,79,0.00,,,0.00,,2013-03-17 09:12:00,
2013-03-17 04:22:00,55.0,48.0,29.91,South,190,0.0,5.0,78,0.00,,,0.00,,2013-03-17 09:22:00,
2013-03-17 04:32:00,56.0,49.0,29.91,SE,142,2.0,0.0,77,0.00,,,0.00,,2013-03-17 09:32:00,
2013-03-17 04:42:00,56.0,49.0,29.91,SE,142,2.0,0.0,77,0.00,,,0.00,,2013-03-17 09:42:00,
2013-03-17 04:53:00,56.0,49.0,29.91,SSE,158,4.0,4.0,78,0.00,,,0.00,,2013-03-17 09:53:00,
2013-03-17 05:03:00,55.0,49.0,29.91,SSE,155,0.0,0.0,79,0.00,,,0.00,,2013-03-17 10:03:00,
2013-03-17 05:13:00,55.0,49.0,29.91,SSE,155,0.0,0.0,79,0.00,,,0.00,,2013-03-17 10:13:00,
2013-03-17 05:23:00,55.0,49.0,29.91,SSW,198,0.0,0.0,80,0.00,,,0.00,,2013-03-17 10:23:00,
2013-03-17 05:33:00,54.0,48.0,29.91,SE,134,0.0,0.0,81,0.00,,,0.00,,2013-03-17 10:33:00,
2013-03-17 05:42:00,54.0,48.0,29.91,SE,134,0.0,0.0,81,0.00,,,0.00,,2013-03-17 10:42:00,
2013-03-17 05:52:00,54.0,49.0,29.92,South,190,0.0,6.0,83,0.00,,,0.00,,2013-03-17 10:52:00,
2013-03-17 06:02:00,54.0,50.0,29.93,SSE,166,0.0,0.0,85,0.00,,,0.00,,2013-03-17 11:02:00,
2013-03-17 06:12:00,54.0,50.0,29.93,SSE,166,0.0,0.0,85,0.00,,,0.00,,2013-03-17 11:12:00,
2013-03-17 06:22:00,54.0,50.0,29.93,SSE,149,5.0,0.0,87,0.00,,,0.00,,2013-03-17 11:22:00,
2013-03-17 06:32:00,54.0,50.0,29.93,South,172,1.0,0.0,87,0.00,,,0.00,,2013-03-17 11:32:00,
2013-03-17 06:42:00,54.0,50.0,29.93,South,172,1.0,0.0,87,0.00,,,0.00,,2013-03-17 11:42:00,
2013-03-17 06:52:00,54.0,50.0,29.93,SE,138,0.0,0.0,87,0.00,,,0.00,,2013-03-17 11:52:00,
2013-03-17 07:02:00,54.0,51.0,29.94,SSE,152,4.0,0.0,88,0.00,,,0.00,,2013-03-17 12:02:00,
2013-03-17 07:12:00,54.0,51.0,29.94,SSE,152,4.0,0.0,88,0.00,,,0.00,,2013-03-17 12:12:00,
2013-03-17 07:22:00,54.0,51.0,29.94,SE,134,3.0,0.0,89,0.00,,,0.00,,2013-03-17 12:22:00,
2013-03-17 07:32:00,54.0,51.0,29.95,SE,136,2.0,3.0,89,0.00,,,0.00,,2013-03-17 12:32:00,
2013-03-17 07:42:00,54.0,51.0,29.95,SE,136,2.0,3.0,89,0.00,,,0.00,,2013-03-17 12:42:00,
2013-03-17 07:52:00,54.0,51.0,29.95,South,172,4.0,0.0,90,0.00,,,0.00,,2013-03-17 12:52:00,
2013-03-17 08:02:00,56.0,53.0,29.95,SSE,155,5.0,5.0,90,0.00,,,0.00,,2013-03-17 13:02:00,
2013-03-17 08:12:00,56.0,53.0,29.95,SSE,155,5.0,5.0,90,0.00,,,0.00,,2013-03-17 13:12:00,
2013-03-17 08:22:00,57.0,53.0,29.95,SSW,201,4.0,4.0,88,0.00,,,0.00,,2013-03-17 13:22:00,
2013-03-17 08:32:00,59.0,54.0,29.96,SSW,212,3.0,4.0,85,0.00,,,0.00,,2013-03-17 13:32:00,
2013-03-17 08:42:00,59.0,54.0,29.96,SSW,212,3.0,4.0,85,0.00,,,0.00,,2013-03-17 13:42:00,
2013-03-17 08:52:00,60.0,54.0,29.96,SE,143,4.0,6.0,82,0.00,,,0.00,,2013-03-17 13:52:00,
2013-03-17 09:02:00,60.0,54.0,29.96,SSW,201,3.0,4.0,80,0.00,,,0.00,,2013-03-17 14:02:00,
2013-03-17 09:12:00,60.0,54.0,29.96,SSW,201,3.0,4.0,80,0.00,,,0.00,,2013-03-17 14:12:00,
2013-03-17 09:22:00,61.0,54.0,29.96,South,183,7.0,7.0,79,0.00,,,0.00,,2013-03-17 14:22:00,
2013-03-17 09:32:00,63.0,55.0,29.96,SSW,203,3.0,4.0,75,0.00,,,0.00,,2013-03-17 14:32:00,
2013-03-17 09:42:00,63.0,55.0,29.96,SSW,203,3.0,4.0,75,0.00,,,0.00,,2013-03-17 14:42:00,
2013-03-17 09:52:00,63.0,55.0,29.97,WSW,253,9.0,9.0,74,0.00,,,0.00,,2013-03-17 14:52:00,
2013-03-17 10:02:00,64.0,55.0,29.97,SSW,210,4.0,0.0,72,0.00,,,0.00,,2013-03-17 15:02:00,
2013-03-17 10:12:00,64.0,55.0,29.97,SSW,210,4.0,0.0,72,0.00,,,0.00,,2013-03-17 15:12:00,
2013-03-17 10:23:00,63.0,54.0,29.96,SSE,150,6.0,0.0,73,0.00,,,0.00,,2013-03-17 15:23:00,
2013-03-17 10:33:00,63.0,54.0,29.96,SW,219,7.0,7.0,73,0.00,,,0.00,,2013-03-17 15:33:00,
2013-03-17 10:42:00,63.0,54.0,29.96,SW,219,7.0,7.0,73,0.00,,,0.00,,2013-03-17 15:42:00,
2013-03-17 10:53:00,65.0,55.0,29.96,SSE,155,1.0,7.0,69,0.00,,,0.00,,2013-03-17 15:53:00,
2013-03-17 11:03:00,66.0,56.0,29.95,WSW,238,8.0,8.0,69,0.00,,,0.00,,2013-03-17 16:03:00,
2013-03-17 11:12:00,66.0,56.0,29.95,WSW,238,8.0,8.0,69,0.00,,,0.00,,2013-03-17 16:12:00,
2013-03-17 11:22:00,67.0,55.0,29.95,South,191,5.0,6.0,66,0.00,,,0.00,,2013-03-17 16:22:00,
2013-03-17 11:33:00,69.0,55.0,29.95,South,169,9.0,9.0,61,0.00,,,0.00,,2013-03-17 16:33:00,
2013-03-17 11:42:00,69.0,55.0,29.95,South,169,9.0,9.0,61,0.00,,,0.00,,2013-03-17 16:42:00,
2013-03-17 11:52:00,69.0,55.0,29.94,SSW,210,4.0,4.0,62,0.00,,,0.00,,2013-03-17 16:52:00,
2013-03-17 12:02:00,69.0,55.0,29.93,South,190,5.0,8.0,61,0.00,,,0.00,,2013-03-17 17:02:00,
2013-03-17 12:12:00,69.0,55.0,29.93,South,190,5.0,8.0,61,0.00,,,0.00,,2013-03-17 17:12:00,
2013-03-17 12:22:00,70.0,54.0,29.93,SSW,193,4.0,4.0,56,0.00,,,0.00,,2013-03-17 17:22:00,
2013-03-17 12:33:00,72.0,53.0,29.92,SSW,208,3.0,4.0,52,0.00,,,0.00,,2013-03-17 17:33:00,
2013-03-17 12:42:00,72.0,53.0,29.92,SSW,208,3.0,4.0,52,0.00,,,0.00,,2013-03-17 17:42:00,
2013-03-17 12:53:00,71.0,52.0,29.92,South,183,6.0,6.0,51,0.00,,,0.00,,2013-03-17 17:53:00,
2013-03-17 13:02:00,70.0,52.0,29.91,South,188,7.0,7.0,52,0.00,,,0.00,,2013-03-17 18:02:00,
2013-03-17 13:12:00,70.0,52.0,29.91,South,188,7.0,7.0,52,0.00,,,0.00,,2013-03-17 18:12:00,
2013-03-17 13:22:00,70.0,52.0,29.91,SSE,156,5.0,5.0,52,0.00,,,0.00,,2013-03-17 18:22:00,
2013-03-17 13:32:00,72.0,51.0,29.90,SW,219,4.0,0.0,48,0.00,,,0.00,,2013-03-17 18:32:00,
2013-03-17 13:42:00,72.0,51.0,29.90,SW,219,4.0,0.0,48,0.00,,,0.00,,2013-03-17 18:42:00,
2013-03-17 13:52:00,71.0,50.0,29.90,SSW,211,7.0,0.0,48,0.00,,,0.00,,2013-03-17 18:52:00,
2013-03-17 14:02:00,72.0,51.0,29.89,SSW,203,5.0,5.0,47,0.00,,,0.00,,2013-03-17 19:02:00,
2013-03-17 14:12:00,72.0,51.0,29.89,SSW,203,5.0,5.0,47,0.00,,,0.00,,2013-03-17 19:12:00,
2013-03-17 14:22:00,72.0,51.0,29.88,SSE,150,7.0,7.0,47,0.00,,,0.00,,2013-03-17 19:22:00,
2013-03-17 14:33:00,71.0,51.0,29.88,WSW,242,5.0,5.0,49,0.00,,,0.00,,2013-03-17 19:33:00,
2013-03-17 14:42:00,71.0,51.0,29.88,WSW,242,5.0,5.0,49,0.00,,,0.00,,2013-03-17 19:42:00,
2013-03-17 14:53:00,71.0,50.0,29.88,South,177,7.0,10.0,48,0.00,,,0.00,,2013-03-17 19:53:00,
2013-03-17 15:02:00,71.0,50.0,29.87,SSE,163,9.0,12.0,48,0.00,,,0.00,,2013-03-17 20:02:00,
2013-03-17 15:12:00,71.0,50.0,29.87,SSE,163,9.0,12.0,48,0.00,,,0.00,,2013-03-17 20:12:00,
2013-03-17 15:22:00,72.0,51.0,29.86,SSW,198,8.0,8.0,47,0.00,,,0.00,,2013-03-17 20:22:00,
2013-03-17 15:32:00,71.0,50.0,29.85,South,169,9.0,9.0,47,0.00,,,0.00,,2013-03-17 20:32:00,
2013-03-17 15:42:00,71.0,50.0,29.85,South,169,9.0,9.0,47,0.00,,,0.00,,2013-03-17 20:42:00,
2013-03-17 15:52:00,72.0,51.0,29.85,South,183,4.0,5.0,47,0.00,,,0.00,,2013-03-17 20:52:00,
2013-03-17 16:02:00,73.0,51.0,29.85,SSW,201,9.0,9.0,46,0.00,,,0.00,,2013-03-17 21:02:00,
2013-03-17 16:12:00,73.0,51.0,29.85,SSW,201,9.0,9.0,46,0.00,,,0.00,,2013-03-17 21:12:00,
2013-03-17 16:22:00,73.0,51.0,29.84,SW,218,10.0,10.0,46,0.00,,,0.00,,2013-03-17 21:22:00,
2013-03-17 16:33:00,71.0,51.0,29.84,ESE,110,5.0,5.0,49,0.00,,,0.00,,2013-03-17 21:33:00,
2013-03-17 16:42:00,71.0,51.0,29.84,ESE,110,5.0,5.0,49,0.00,,,0.00,,2013-03-17 21:42:00,
2013-03-17 16:52:00,70.0,52.0,29.84,SSE,166,7.0,9.0,52,0.00,,,0.00,,2013-03-17 21:52:00,
2013-03-17 17:03:00,70.0,51.0,29.83,SE,129,4.0,4.0,51,0.00,,,0.00,,2013-03-17 22:03:00,
2013-03-17 17:12:00,70.0,52.0,29.83,SE,128,6.0,8.0,52,0.00,,,0.00,,2013-03-17 22:12:00,
2013-03-17 17:23:00,70.0,52.0,29.83,SE,128,6.0,8.0,52,0.00,,,0.00,,2013-03-17 22:23:00,
2013-03-17 17:33:00,70.0,52.0,29.84,SSE,163,9.0,10.0,52,0.00,,,0.00,,2013-03-17 22:33:00,
2013-03-17 17:42:00,70.0,52.0,29.84,SSE,163,9.0,10.0,52,0.00,,,0.00,,2013-03-17 22:42:00,
2013-03-17 17:53:00,69.0,50.0,29.84,SSE,158,3.0,4.0,51,0.00,,,0.00,,2013-03-17 22:53:00,
2013-03-17 18:02:00,69.0,51.0,29.84,South,169,7.0,8.0,52,0.00,,,0.00,,2013-03-17 23:02:00,
2013-03-17 18:12:00,69.0,51.0,29.84,South,169,7.0,8.0,52,0.00,,,0.00,,2013-03-17 23:12:00,
2013-03-17 18:22:00,69.0,51.0,29.84,South,170,6.0,9.0,53,0.00,,,0.00,,2013-03-17 23:22:00,
2013-03-17 18:32:00,68.0,51.0,29.84,South,190,5.0,10.0,54,0.00,,,0.00,,2013-03-17 23:32:00,
2013-03-17 18:42:00,68.0,51.0,29.84,South,190,5.0,10.0,54,0.00,,,0.00,,2013-03-17 23:42:00,
2013-03-17 18:52:00,68.0,52.0,29.85,South,177,8.0,8.0,56,0.00,,,0.00,,2013-03-17 23:52:00,
2013-03-17 19:03:00,67.0,51.0,29.85,South,170,2.0,0.0,57,0.00,,,0.00,,2013-03-18 00:03:00,
2013-03-17 19:12:00,67.0,51.0,29.85,South,170,2.0,0.0,57,0.00,,,0.00,,2013-03-18 00:12:00,
2013-03-17 19:22:00,66.0,51.0,29.85,SSW,210,1.0,0.0,58,0.00,,,0.00,,2013-03-18 00:22:00,
2013-03-17 19:33:00,65.0,51.0,29.85,South,179,0.0,6.0,61,0.00,,,0.00,,2013-03-18 00:33:00,
2013-03-17 19:42:00,65.0,51.0,29.85,South,179,0.0,6.0,61,0.00,,,0.00,,2013-03-18 00:42:00,
2013-03-17 19:52:00,64.0,50.0,29.85,South,191,0.0,0.0,61,0.00,,,0.00,,2013-03-18 00:52:00,
2013-03-17 20:01:00,63.0,50.0,29.84,South,187,0.0,0.0,63,0.00,,,0.00,,2013-03-18 01:01:00,
2013-03-17 20:12:00,63.0,50.0,29.84,South,187,0.0,0.0,63,0.00,,,0.00,,2013-03-18 01:12:00,
2013-03-17 20:22:00,62.0,50.0,29.84,South,187,0.0,0.0,65,0.00,,,0.00,,2013-03-18 01:22:00,
2013-03-17 20:32:00,61.0,50.0,29.85,South,187,0.0,0.0,67,0.00,,,0.00,,2013-03-18 01:32:00,
2013-03-17 20:42:00,61.0,50.0,29.85,South,187,0.0,0.0,67,0.00,,,0.00,,2013-03-18 01:42:00,
2013-03-17 20:52:00,60.0,50.0,29.85,South,187,0.0,0.0,69,0.00,,,0.00,,2013-03-18 01:52:00,
2013-03-17 21:02:00,60.0,51.0,29.85,ESE,107,0.0,0.0,71,0.00,,,0.00,,2013-03-18 02:02:00,
2013-03-17 21:12:00,60.0,51.0,29.85,ESE,107,0.0,0.0,71,0.00,,,0.00,,2013-03-18 02:12:00,
2013-03-17 21:22:00,60.0,51.0,29.85,SE,146,0.0,0.0,71,0.00,,,0.00,,2013-03-18 02:22:00,
2013-03-17 21:32:00,60.0,51.0,29.85,ESE,122,0.0,0.0,71,0.00,,,0.00,,2013-03-18 02:32:00,
2013-03-17 21:42:00,60.0,51.0,29.85,ESE,122,0.0,0.0,71,0.00,,,0.00,,2013-03-18 02:42:00,
2013-03-17 21:52:00,60.0,51.0,29.86,ESE,117,0.0,0.0,72,0.00,,,0.00,,2013-03-18 02:52:00,
2013-03-17 22:02:00,59.0,50.0,29.86,SE,125,0.0,0.0,73,0.00,,,0.00,,2013-03-18 03:02:00,
2013-03-17 22:11:00,59.0,51.0,29.86,SE,138,0.0,0.0,75,0.00,,,0.00,,2013-03-18 03:11:00,
2013-03-17 22:22:00,59.0,51.0,29.86,SE,138,0.0,0.0,75,0.00,,,0.00,,2013-03-18 03:22:00,
2013-03-17 22:33:00,60.0,52.0,29.85,SE,141,3.0,3.0,75,0.00,,,0.00,,2013-03-18 03:33:00,
2013-03-17 22:42:00,60.0,52.0,29.85,SE,141,3.0,3.0,75,0.00,,,0.00,,2013-03-18 03:42:00,
2013-03-17 22:53:00,60.0,52.0,29.84,ENE,62,3.0,0.0,74,0.00,,,0.00,,2013-03-18 03:53:00,
2013-03-17 23:03:00,60.0,52.0,29.84,East,86,2.0,0.0,74,0.00,,,0.00,,2013-03-18 04:03:00,
2013-03-17 23:13:00,60.0,52.0,29.84,East,86,2.0,0.0,74,0.00,,,0.00,,2013-03-18 04:13:00,
2013-03-17 23:22:00,60.0,52.0,29.84,SSE,153,2.0,3.0,74,0.00,,,0.00,,2013-03-18 04:22:00,
2013-03-17 23:33:00,61.0,53.0,29.83,SE,131,2.0,0.0,74,0.00,,,0.00,,2013-03-18 04:33:00,
2013-03-17 23:42:00,61.0,53.0,29.83,SE,131,2.0,0.0,74,0.00,,,0.00,,2013-03-18 04:42:00,
2013-03-17 23:52:00,62.0,54.0,29.83,SE,128,3.0,4.0,74,0.00,,,0.00,,2013-03-18 04:52:00,